EW5299 Weather Reports


Display with metric or nautical units.
time (UTC)temp
F
wind
direction
speed
MPH
gust
MPH
rain 1hr
in
rain 24hr
in
rain mn
in
humidity
%
barometer
mb
20260507184516 55 246 4.0 9.0 0.00 0.20 0.16 71 1009.8
20260507183017 55 192 5.0 8.0 0.00 0.20 0.16 69 1009.9
20260507181517 55 203 6.0 9.0 0.00 0.20 0.16 71 1010.1
20260507180023 55 232 3.0 7.0 0.00 0.20 0.16 72 1010.1
20260507174515 55 202 4.0 7.0 0.00 0.20 0.16 72 1010.3
20260507173027 55 194 4.0 7.0 0.00 0.20 0.16 72 1010.4
20260507171513 54 121 2.0 8.0 0.00 0.20 0.16 72 1010.5
20260507170012 54 189 2.0 6.0 0.00 0.20 0.16 71 1010.8
20260507164510 54 191 1.0 6.0 0.03 0.20 0.16 69 1011.0
20260507163010 53 169 2.0 5.0 0.04 0.20 0.16 64 1011.1
20260507161508 53 153 2.0 5.0 0.04 0.20 0.16 66 1011.5
20260507160006 53 153 1.0 3.0 0.04 0.20 0.16 68 1011.6
20260507154505 54 150 0.0 4.0 0.01 0.17 0.13 71 1011.7
20260507153003 54 115 0.0 7.0 0.00 0.16 0.12 68 1011.4
20260507151501 53 100 2.0 5.0 0.00 0.16 0.12 67 1011.4
20260507150059 53 87 4.0 8.0 0.00 0.16 0.12 66 1011.4
20260507144556 53 105 2.0 6.0 0.00 0.16 0.12 63 1011.7
20260507143100 53 101 2.0 7.0 0.00 0.16 0.12 63 1012.0
20260507141554 53 126 4.0 8.0 0.00 0.16 0.12 67 1012.0
20260507140052 53 99 3.0 9.0 0.00 0.16 0.12 64 1012.2
20260507134550 53 131 4.0 9.0 0.00 0.21 0.12 61 1012.3
20260507133101 53 114 5.0 9.0 0.00 0.21 0.12 58 1012.2
20260507131551 53 109 5.0 10.0 0.00 0.21 0.12 52 1012.1
20260507130058 53 81 6.0 9.0 0.00 0.21 0.12 43 1011.9
20260507124540 53 115 3.0 5.0 0.00 0.24 0.12 36 1011.8
20260507123040 53 88 4.0 7.0 0.00 0.24 0.12 36 1012.0
20260507121537 53 109 3.0 7.0 0.00 0.24 0.12 34 1011.6
20260507120048 52 112 3.0 5.0 0.00 0.24 0.12 33 1011.4
20260507114550 52 121 2.0 5.0 0.00 0.24 0.12 32 1011.6
20260507113030 52 107 4.0 6.0 0.00 0.24 0.12 32 1011.2
20260507111533 52 83 3.0 7.0 0.00 0.24 0.12 30 1011.0
20260507110025 53 92 3.0 6.0 0.00 0.24 0.12 30 1010.9
20260507104524 53 135 1.0 3.0 0.00 0.26 0.12 29 1010.9
20260507103023 53 135 0.0 3.0 0.00 0.26 0.12 30 1011.1
20260507101523 53 135 2.0 3.0 0.00 0.26 0.12 30 1010.9
20260507100021 53 135 1.0 3.0 0.00 0.26 0.12 31 1010.7
20260507094520 53 135 0.0 3.0 0.00 0.26 0.12 31 1010.6
20260507093025 53 135 0.0 2.0 0.00 0.26 0.12 31 1010.7
20260507091526 53 135 0.0 1.0 0.00 0.26 0.12 32 1010.7
20260507090023 53 135 2.0 4.0 0.00 0.26 0.12 32 1010.5
20260507084518 53 136 1.0 4.0 0.00 0.26 0.12 32 1010.2
20260507083015 53 120 2.0 7.0 0.00 0.26 0.12 31 1010.1
20260507081513 54 144 2.0 5.0 0.00 0.26 0.12 31 1010.3
20260507080012 54 113 4.0 7.0 0.00 0.26 0.12 31 1010.1
20260507074509 54 146 3.0 6.0 0.00 0.26 0.12 30 1010.1
20260507073010 54 124 5.0 10.0 0.00 0.26 0.12 30 1009.4
20260507071506 55 88 5.0 13.0 0.00 0.26 0.12 29 1009.5
20260507070008 55 127 6.0 11.0 0.00 0.26 0.12 28 1009.2
20260507064605 56 106 5.0 9.0 0.00 0.26 0.12 27 1009.4
20260507063106 56 123 3.0 10.0 0.00 0.26 0.12 26 1009.6
20260507061557 56 111 5.0 11.0 0.00 0.26 0.12 26 1009.4
20260507060056 56 116 7.0 13.0 0.00 0.26 0.12 26 1009.8
20260507054552 57 92 8.0 14.0 0.01 0.26 0.12 25 1009.9
20260507053044 58 129 7.0 15.0 0.02 0.26 0.12 24 1009.3
20260507051537 59 86 5.0 11.0 0.12 0.26 0.12 23 1008.9
20260507050033 60 142 4.0 8.0 0.12 0.26 0.12 23 1008.1
20260507044526 60 96 3.0 5.0 0.12 0.25 0.11 23 1009.4
20260507043025 61 157 4.0 12.0 0.13 0.24 0.10 25 1008.5
20260507041517 62 89 7.0 12.0 0.04 0.14 0.00 25 1009.3
20260507040010 62 59 4.0 7.0 0.04 0.14 0.00 27 1009.1
20260507034509 63 103 4.0 7.0 0.03 0.13 0.13 25 1009.4
20260507033007 64 88 5.0 9.0 0.01 0.11 0.11 25 1009.4
20260507031510 64 96 4.0 8.0 0.00 0.10 0.10 24 1008.8
20260507030006 64 115 0.0 1.0 0.00 0.10 0.10 25 1008.8
20260507024509 63 115 1.0 3.0 0.00 0.10 0.10 27 1008.8
20260507023004 63 150 0.0 2.0 0.00 0.10 0.10 34 1008.6
20260507021503 64 305 0.0 0.0 0.00 0.10 0.10 40 1008.6
20260507020003 65 305 0.0 1.0 0.00 0.10 0.10 45 1008.3
20260507014502 65 305 0.0 1.0 0.00 0.10 0.10 46 1007.7
20260507013004 66 307 0.0 2.0 0.00 0.10 0.10 48 1008.0
20260507011504 66 308 0.0 6.0 0.00 0.10 0.10 49 1008.3
20260507010002 66 325 1.0 4.0 0.00 0.10 0.10 48 1008.6
20260507004607 66 317 1.0 6.0 0.00 0.10 0.10 54 1008.2
20260507003100 67 298 4.0 7.0 0.00 0.10 0.10 54 1008.0
20260507001601 67 278 2.0 6.0 0.00 0.10 0.10 58 1007.8
20260507000101 68 293 2.0 8.0 0.00 0.10 0.10 59 1007.6
20260506234558 68 259 4.0 9.0 0.00 0.10 0.10 60 1007.6
20260506233110 69 294 7.0 11.0 0.00 0.10 0.10 62 1007.7
20260506231602 70 266 6.0 11.0 0.00 0.10 0.10 63 1007.5
20260506230057 69 294 5.0 11.0 0.00 0.10 0.10 63 1007.1
20260506224556 70 260 4.0 12.0 0.00 0.10 0.10 64 1007.2
20260506223057 70 294 7.0 12.0 0.00 0.10 0.10 65 1007.4
20260506221604 70 260 5.0 15.0 0.00 0.10 0.10 65 1007.2
20260506220055 70 250 5.0 11.0 0.00 0.10 0.10 65 1007.2
20260506214555 70 239 6.0 13.0 0.00 0.10 0.10 65 1007.1
20260506213111 70 266 6.0 11.0 0.00 0.10 0.10 65 1007.1
20260506211553 70 245 6.0 13.0 0.00 0.10 0.10 65 1007.0
20260506210050 70 250 6.0 14.0 0.00 0.10 0.10 64 1006.9
20260506204548 69 242 8.0 12.0 0.00 0.10 0.10 62 1006.8
20260506203046 69 267 8.0 13.0 0.00 0.10 0.10 63 1006.8
20260506201545 68 265 6.0 15.0 0.00 0.10 0.10 63 1007.0
20260506200042 68 266 7.0 12.0 0.00 0.10 0.10 60 1006.7
20260506194539 67 281 7.0 13.0 0.00 0.10 0.10 58 1007.1
20260506193039 67 300 7.0 13.0 0.00 0.10 0.10 58 1007.1
20260506191535 66 250 4.0 11.0 0.00 0.10 0.10 54 1007.3
20260506190032 66 275 5.0 15.0 0.00 0.10 0.10 57 1007.5